[[{"header":{"parameterUnit":"m.s-1","parameterCategory":1,"la1":30.2991,"la2":30.254,"lo1":-89.0895,"lo2":-89.0444,"dy":0.0017,"dx":0.0017,"nx":28,"ny":28,"refTime":"2024-08-27T03:00:00:Z","depth":0,"parameterNumber":2,"parameterNumberName":"U-component_of_WINDS"},"data":[0,0,0,0,0,0,0,0,0,0,0,0,0,0,0,0,0,0,0,0,0,0,0,0,0,0,0,0,0,0,0,0,0,0,0,0,0,0,0,0,0,0,0,0,0,0,0,0,0,0,0,0,0,0,0,0,0,0,-3.9762,-3.9763,0,-3.9903,-3.9905,-3.9907,-3.9877,-3.9874,-3.9872,-3.9869,-4.0018,-4.0024,-4.003,0,0,0,0,0,0,0,0,0,0,0,0,0,-3.9472,-3.9477,-3.9761,-3.9763,-3.9765,-3.9903,-3.9905,-3.9907,-3.9877,-3.9874,-3.9871,-3.9868,-4.0016,-4.0023,-4.0031,0,0,0,0,0,0,0,0,0,0,0,0,0,-3.9604,-3.9479,-3.9761,-3.9767,-3.9769,-3.9903,-3.9905,-3.9907,-3.9878,-3.9874,-3.987,-3.9866,-4.0013,-4.0022,-4.0032,-4.017,0,0,-4.0061,-4.0065,0,0,0,0,0,0,0,0,-3.9597,-3.9615,-3.9764,-3.9767,-3.9769,-3.9868,-3.9857,-3.9996,-3.9879,-3.9837,-3.9869,-3.9864,-3.9971,-3.9984,-4.002,-4.0177,-4.0184,-4.0062,-4.0068,-4.0072,-4.0075,0,0,0,0,0,0,0,-3.9587,-3.9608,-3.9818,-3.9766,-3.9769,-3.9764,-3.9779,-3.9883,-3.9925,-3.984,-3.9838,-3.9855,-3.9972,-4.001,-4.0023,-4.0186,-4.0062,-4.007,-4.0076,-4.008,-4.0468,-4.0472,0,0,0,0,0,0,-3.9575,-3.9601,-3.9813,-3.9822,-3.9671,-3.9773,-3.9789,-3.984,-3.9923,-3.9932,-3.9858,-3.9853,-3.9996,-4.0012,-4.0028,-4.0196,-4.0072,-4.0081,-4.0087,-4.0463,-4.0469,-4.0474,0,0,0,0,0,0,-3.9569,-3.9595,-3.9807,-3.9711,-3.9738,-3.9782,-3.984,-3.9845,-3.9883,-3.9937,-3.9945,-3.9889,-3.9993,-4.0014,-4.0136,-4.0201,-4.0085,-4.0094,-4.0458,-4.0465,-4.0471,-4.0534,0,0,0,0,0,0,-3.9561,-3.9592,-3.9643,-3.9712,-3.9743,-3.9911,-3.9844,-3.9851,-3.99,-3.9894,-3.9968,-3.9977,-3.9992,-4.0121,-4.0145,-4.0212,-4.0102,-4.0452,-4.0461,-4.0469,-4.0526,-4.0542,-4.0555,0,0,0,0,0,-3.9551,-3.9655,-3.9646,-3.9672,-3.9807,-3.9914,-3.9932,-3.9946,-3.9905,-3.9958,-3.9993,-3.9974,-4.0191,-4.0134,-4.0161,-4.0232,-4.0448,-4.0459,-4.0469,-4.0519,-4.0539,-4.0555,0,0,0,0,0,0,-3.9593,-3.9664,-3.9655,-3.9784,-3.9844,-3.9909,-3.9975,-3.9966,-4.0038,-4.003,-4.0047,-4.0064,-4.0187,-4.0222,-4.0157,-4.0372,-4.0314,-4.033,-4.0344,-4.0363,-4.0377,-4.0365,-4.011,0,0,0,0,0,-3.9617,-3.9697,-3.9756,-3.9865,-3.9895,-3.9931,-3.9978,-3.9984,-4.0046,-4.0071,-4.0115,-4.0178,-4.026,-4.0314,-4.0392,-4.0533,-4.0549,-4.0595,-4.061,-4.0621,-4.0634,-4.0714,-4.0735,-4.0507,-4.0507,-4.0507,0,0,-3.9668,-3.9717,-3.9766,-3.9874,-3.9921,-4.0005,-3.9951,-4.0042,-4.0105,-4.0085,-4.0202,-4.0237,-4.0309,-4.044,-4.0501,-4.0473,-4.0702,-4.0635,-4.0643,-4.065,-4.0726,-4.0748,-4.0767,-4.0514,-4.0513,-4.0512,0,0,-3.9803,-3.9848,-3.9944,-3.9993,-4.0065,-4.0089,-4.0112,-4.0181,-4.0203,-4.0321,-4.0309,-4.0386,-4.0527,-4.0578,-4.0623,-4.0785,-4.0771,-4.081,-4.0886,-4.0963,-4.0981,-4.0997,-4.1055,-4.1076,-4.0824,-4.0824,-4.0824,0,-3.9858,-3.9981,-3.9996,-4.0088,-4.0137,-4.0125,-4.0224,-4.0271,-4.0365,-4.04,-4.0368,-4.0547,-4.0594,-4.0739,-4.0779,-4.0816,-4.0845,-4.08,-4.0977,-4.0993,-4.1008,-4.1064,-4.1086,-4.0828,-4.0828,-4.0827,-4.0827,0,-4.0045,-4.0132,-4.0202,-4.0293,-4.035,-4.0446,-4.0477,-4.0534,-4.0537,-4.0566,-4.0688,-4.0745,-4.0836,-4.0872,-4.0875,-4.1019,-4.0999,-4.0973,-4.0914,-4.1034,-4.1087,-4.1108,-4.0834,-4.0833,-4.0831,-4.083,0,0,-4.0206,-4.0307,-4.0332,-4.0375,-4.0455,-4.0523,-4.0621,-4.0709,-4.0759,-4.0826,-4.0909,-4.1031,-4.1008,-4.1059,-4.1069,-4.1137,-4.1263,-4.1103,-4.1105,-4.113,-4.1426,-4.1444,-4.1468,-4.1256,-4.126,-4.1263,-4.142,0,-4.0348,-4.0516,-4.0535,-4.0686,-4.0768,-4.076,-4.0845,-4.0906,-4.0936,-4.1012,-4.1047,-4.1133,-4.1096,-4.1127,-4.1194,-4.1233,-4.1322,-4.1223,-4.1334,-4.1338,-4.1314,-4.1496,-4.1515,-4.1659,-4.1441,-4.1444,-4.1447,0,-4.0535,-4.0607,-4.0767,-4.0839,-4.0874,-4.095,-4.1034,-4.1107,-4.1177,-4.1195,-4.1254,-4.1257,-4.136,-4.1301,-4.1444,-4.1376,-4.1424,-4.1451,-4.1457,-4.1466,-4.1397,-4.1509,-4.1706,-4.1727,-4.1479,-4.1476,-4.1474,0,-4.0636,-4.0774,-4.0888,-4.0924,-4.1012,-4.1065,-4.1105,-4.1171,-4.1224,-4.13,-4.1335,-4.1422,-4.1469,-4.1538,-4.1566,-4.152,-4.1709,-4.1651,-4.1727,-4.1727,-4.1765,-4.1762,-4.1971,-4.1799,-4.1798,-4.1798,-4.1798,0,-4.0791,-4.0889,-4.0934,-4.1004,-4.1115,-4.1138,-4.1247,-4.1285,-4.1345,-4.1423,-4.1424,-4.1498,-4.1531,-4.1612,-4.1635,-4.1751,-4.1773,-4.1791,-4.1796,-4.179,-4.1788,-4.182,-4.181,-4.1804,-4.1803,-4.1801,-4.18,0,-4.0921,-4.0955,-4.1079,-4.1152,-4.1174,-4.1252,-4.1316,-4.1385,-4.1417,-4.1518,-4.1543,-4.1593,-4.1688,-4.1724,-4.184,-4.1856,-4.1991,-4.1988,-4.1966,-4.1967,-4.2041,-4.2033,-4.2277,-4.231,-4.2117,-4.2119,-4.2121,0,-4.1016,-4.1092,-4.1174,-4.1227,-4.1268,-4.1352,-4.1408,-4.1435,-4.1493,-4.1581,-4.164,-4.1735,-4.1812,-4.1966,-4.2014,-4.2104,-4.2103,-4.2182,-4.2116,-4.2109,-4.2103,-4.2098,-4.2106,-4.2193,-4.2195,-4.2197,-4.2198,0,-4.1183,-4.1197,-4.1275,-4.1362,-4.1427,-4.1497,-4.1564,-4.1608,-4.1646,-4.1711,-4.1809,-4.1869,-4.1989,-4.2084,-4.2177,-4.222,-4.2217,-4.2219,-4.2242,-4.2235,-4.222,-4.2229,-4.1998,-4.2213,-4.2211,-4.221,-4.2209,-4.2209,-4.1298,-4.1366,-4.1435,-4.1523,-4.1577,-4.1641,-4.171,-4.1752,-4.1833,-4.1932,-4.1945,-4.205,-4.2123,-4.2247,-4.2295,-4.238,-4.2358,-4.2391,-4.2399,-4.2406,-4.2411,-4.2208,-4.2397,-4.2397,-4.2396,-4.2396,-4.2396,0,-4.1464,-4.1509,-4.1591,-4.1685,-4.1756,-4.1747,-4.1823,-4.1883,-4.1975,-4.2043,-4.2119,-4.2233,-4.2327,-4.2384,-4.2479,-4.2536,-4.2537,-4.256,-4.2555,-4.2565,-4.2425,-4.2395,-4.2557,-4.2557,-4.2557,-4.2557,-4.2557,-4.2557,-4.1559,-4.1673,-4.1696,-4.1839,-4.1884,-4.1986,-4.203,-4.209,-4.2144,-4.2271,-4.2349,-4.2386,-4.2451,-4.2551,-4.2637,-4.2652,-4.2687,-4.2712,-4.2725,-4.2592,-4.2575,-4.2559,-4.2531,-4.2719,-4.2719,-4.2858,-4.2859,-4.286]},{"header":{"parameterUnit":"m.s-1","parameterCategory":1,"la1":30.2991,"la2":30.254,"lo1":-89.0895,"lo2":-89.0444,"dy":0.0017,"dx":0.0017,"nx":28,"ny":28,"refTime":"2024-08-27T03:00:00:Z","depth":0,"parameterNumber":3,"parameterNumberName":"V-component_of_WINDS"},"data":[0,0,0,0,0,0,0,0,0,0,0,0,0,0,0,0,0,0,0,0,0,0,0,0,0,0,0,0,0,0,0,0,0,0,0,0,0,0,0,0,0,0,0,0,0,0,0,0,0,0,0,0,0,0,0,0,0,0,4.3991,4.3992,0,4.4069,4.407,4.4071,4.4145,4.4146,4.4146,4.4147,4.422,4.4221,4.4223,0,0,0,0,0,0,0,0,0,0,0,0,0,4.39,4.3901,4.3991,4.3992,4.3993,4.4069,4.407,4.4071,4.4144,4.4146,4.4147,4.4148,4.422,4.4221,4.4223,0,0,0,0,0,0,0,0,0,0,0,0,0,4.3954,4.3901,4.399,4.4039,4.4044,4.4068,4.407,4.4071,4.4144,4.4146,4.4147,4.4148,4.422,4.4221,4.4223,4.4204,0,0,4.4228,4.4228,0,0,0,0,0,0,0,0,4.3951,4.3957,4.4031,4.4035,4.4041,4.4099,4.4064,4.4115,4.4144,4.4106,4.4147,4.4149,4.4178,4.4183,4.4195,4.4207,4.421,4.4228,4.4229,4.4229,4.423,0,0,0,0,0,0,0,4.3947,4.3954,4.4021,4.4032,4.4038,4.4055,4.4064,4.4074,4.4133,4.4109,4.4115,4.4123,4.4181,4.4193,4.4197,4.4212,4.4228,4.4229,4.423,4.4231,4.4212,4.4211,0,0,0,0,0,0,4.3937,4.3951,4.4019,4.4024,4.3999,4.4055,4.4066,4.4079,4.4133,4.4143,4.4122,4.4127,4.419,4.4195,4.42,4.418,4.4229,4.4231,4.4232,4.4214,4.4212,4.421,0,0,0,0,0,0,4.3935,4.3942,4.4016,4.3989,4.4,4.4055,4.4069,4.4079,4.4091,4.4143,4.4153,4.4124,4.4191,4.4197,4.4203,4.4184,4.4232,4.4233,4.4215,4.4213,4.4211,4.4142,0,0,0,0,0,0,4.3932,4.3941,4.3936,4.3988,4.4001,4.4019,4.4068,4.408,4.4094,4.4101,4.4147,4.4156,4.4192,4.42,4.4204,4.4187,4.4234,4.4217,4.4214,4.4212,4.4146,4.4138,4.413,0,0,0,0,0,4.3928,4.3912,4.3935,4.3943,4.3996,4.4018,4.4025,4.4069,4.4093,4.4087,4.412,4.4154,4.4186,4.42,4.4205,4.4188,4.4218,4.4215,4.4212,4.4149,4.4139,4.4131,0,0,0,0,0,0,4.3852,4.3919,4.3946,4.3946,4.3976,4.403,4.4024,4.4057,4.4079,4.4084,4.4136,4.4146,4.4145,4.4167,4.4182,4.4173,4.4207,4.4204,4.4157,4.4148,4.4141,4.4134,4.4236,0,0,0,0,0,4.3836,4.3851,4.3908,4.3903,4.3916,4.3968,4.3979,4.4011,4.4043,4.4055,4.4089,4.4116,4.4133,4.4142,4.416,4.4151,4.4161,4.4142,4.4134,4.4127,4.4124,4.4119,4.4111,4.42,4.42,4.42,0,0,4.3802,4.384,4.3846,4.3888,4.3915,4.3927,4.3977,4.3988,4.3996,4.4056,4.4063,4.4089,4.4123,4.4121,4.4122,4.414,4.4102,4.4123,4.4117,4.4118,4.4115,4.4106,4.4099,4.4197,4.4198,4.4198,0,0,4.3745,4.3777,4.3776,4.3802,4.3843,4.3878,4.3877,4.3927,4.3947,4.3956,4.4001,4.4011,4.4038,4.4061,4.4076,4.4029,4.4061,4.4034,4.3992,4.3987,4.398,4.3974,4.3955,4.3948,4.4031,4.403,4.403,0,4.3696,4.3718,4.377,4.3778,4.3795,4.3853,4.3851,4.3873,4.3917,4.3926,4.3947,4.3983,4.401,4.4013,4.4002,4.4013,4.4012,4.4027,4.3977,4.3972,4.3967,4.395,4.3943,4.4027,4.4027,4.4027,4.4028,0,4.3656,4.367,4.3664,4.3707,4.3724,4.3726,4.3777,4.3787,4.3818,4.385,4.3857,4.3893,4.3918,4.3922,4.3951,4.3929,4.3939,4.3968,4.4003,4.3954,4.3938,4.3932,4.4021,4.4023,4.4024,4.4025,0,0,4.3551,4.3625,4.3621,4.3642,4.3692,4.3703,4.3708,4.3736,4.3742,4.3771,4.3775,4.3798,4.3825,4.3842,4.3875,4.3871,4.383,4.39,4.3902,4.3884,4.3805,4.3781,4.3773,4.3852,4.3851,4.385,4.3802,0,4.3501,4.3516,4.3563,4.3563,4.3576,4.3631,4.3636,4.3666,4.3696,4.371,4.3742,4.3757,4.3793,4.3803,4.3802,4.3835,4.3814,4.3839,4.3854,4.3854,4.3841,4.3766,4.3741,4.3693,4.3796,4.3795,4.3795,0,4.3444,4.3471,4.3472,4.3523,4.353,4.3533,4.3562,4.3576,4.3611,4.3633,4.3653,4.369,4.3697,4.3731,4.374,4.3756,4.3765,4.3782,4.3782,4.3782,4.3819,4.3762,4.3679,4.367,4.3786,4.3787,4.3787,0,4.3365,4.3402,4.3408,4.3424,4.3483,4.3483,4.3508,4.3545,4.3558,4.3583,4.3592,4.3617,4.363,4.3647,4.3689,4.3711,4.3693,4.3731,4.3709,4.3707,4.37,4.3699,4.3614,4.371,4.371,4.371,4.371,0,4.3303,4.3301,4.3373,4.3376,4.3375,4.343,4.3427,4.3456,4.3488,4.3496,4.3546,4.3552,4.361,4.3622,4.3655,4.3656,4.3662,4.3678,4.3686,4.3672,4.367,4.3676,4.368,4.3708,4.3708,4.3709,4.3709,0,4.3213,4.3262,4.3271,4.3328,4.3342,4.3338,4.3386,4.339,4.3424,4.3434,4.3439,4.3491,4.3508,4.3553,4.3581,4.3604,4.3594,4.3612,4.3583,4.3588,4.3562,4.3563,4.3477,4.3467,4.357,4.3569,4.3569,0,4.3169,4.3169,4.3226,4.3237,4.326,4.3275,4.329,4.3344,4.3357,4.3398,4.3396,4.3418,4.3438,4.3462,4.3501,4.3522,4.3539,4.3507,4.3542,4.3528,4.3536,4.3534,4.3534,4.3498,4.3497,4.3496,4.3495,0,4.3085,4.3109,4.313,4.316,4.3177,4.3202,4.3229,4.3234,4.3295,4.3306,4.3326,4.3341,4.3371,4.3391,4.3419,4.3442,4.3477,4.3485,4.348,4.3464,4.3447,4.3454,4.3559,4.3485,4.3486,4.3487,4.3488,4.3488,4.3015,4.3018,4.3059,4.308,4.3107,4.3132,4.3139,4.3175,4.3193,4.3223,4.3253,4.3269,4.3304,4.3345,4.3366,4.3377,4.3396,4.339,4.3388,4.3385,4.3378,4.3447,4.3383,4.3383,4.3384,4.3384,4.3384,0,4.2932,4.2961,4.2981,4.3019,4.3036,4.3072,4.3105,4.3115,4.3129,4.316,4.3179,4.3201,4.3221,4.3262,4.3286,4.3287,4.3303,4.3291,4.3289,4.3294,4.3361,4.3361,4.3277,4.3277,4.3277,4.3277,4.3277,4.3277,4.289,4.2896,4.2926,4.2945,4.2975,4.2992,4.3008,4.303,4.3055,4.3078,4.3096,4.3124,4.3158,4.3185,4.3204,4.3216,4.322,4.3202,4.3218,4.3279,4.3289,4.3299,4.33,4.3203,4.3203,4.315,4.3149,4.3149]}]]